Weather reports worldwide

Advertisment
Huesca, Spain (8094): temperature & dewpoint: 09.09.2019 10:00:00 - 15.09.2019 10:00:00 (CEST)Huesca, Spain (8094): wind speed: 09.09.2019 10:00:00 - 15.09.2019 10:00:00 (CEST)Huesca, Spain (8094): wind direction: 09.09.2019 10:00:00 - 15.09.2019 10:00:00 (CEST)Huesca, Spain (8094): reduced air pressure: 09.09.2019 10:00:00 - 15.09.2019 10:00:00 (CEST)Huesca, Spain (8094): visibility: 09.09.2019 10:00:00 - 15.09.2019 10:00:00 (CEST)Huesca, Spain (8094): precipitation: 09.09.2019 10:00:00 - 15.09.2019 10:00:00 (CEST)
Date & Time tt [°C] td [°C] ff [km/h] ff [kn] dd ppp [hPa] vv [km] rr [mm]
15.09.2019 10:00:00 19,1 14,8 5 3 NNW 1022,6 - 0,0
15.09.2019 09:00:00 16,9 14,0 5 3 NNW 1022,6 - 0,0
15.09.2019 08:00:00 16,6 13,5 5 3 SE 1022,4 - -
15.09.2019 07:00:00 17,1 13,2 11 6 ESE 1022,2 - 0,0
15.09.2019 06:00:00 17,8 13,5 11 6 E 1022,4 - 0,0
15.09.2019 05:00:00 17,2 13,7 11 6 ESE 1023,0 - -
15.09.2019 04:00:00 16,7 14,0 11 6 ESE 1023,3 - 0,0
15.09.2019 03:00:00 16,8 14,1 9 5 ESE 1023,3 - 0,0
15.09.2019 02:00:00 17,4 14,1 11 6 E 1023,4 - -
15.09.2019 01:00:00 17,6 14,9 11 6 ENE 1023,9 - 3,0
15.09.2019 00:00:00 18,4 13,9 9 5 ENE 1024,0 - 0,6
14.09.2019 23:00:00 18,6 15,1 8 4 E 1023,8 - -
14.09.2019 22:00:00 21,0 13,2 9 5 SSE 1023,3 - 0,4
14.09.2019 21:00:00 21,0 12,4 5 3 NE 1022,3 - 0,0
14.09.2019 20:00:00 23,2 10,6 5 3 E 1022,3 - -
14.09.2019 19:00:00 24,4 9,9 5 3 E 1022,0 - 0,0
14.09.2019 18:00:00 26,7 11,6 11 6 SSE 1021,5 - 0,0
14.09.2019 17:00:00 27,3 9,6 16 9 SE 1021,3 55 -
14.09.2019 16:00:00 26,3 11,2 11 6 SSE 1021,9 - 0,0
14.09.2019 15:00:00 25,5 9,3 18 10 ESE 1022,4 - 0,0
14.09.2019 14:00:00 25,7 10,3 13 7 ESE 1023,9 70 -
14.09.2019 13:00:00 23,2 13,1 8 4 E 1025,0 - 0,0
14.09.2019 12:00:00 20,5 13,5 4 2 E 1026,3 - 0,0
14.09.2019 11:00:00 19,5 15,2 5 3 WSW 1026,3 60 -
14.09.2019 10:00:00 18,6 14,9 0 0 N 1025,8 - 0,0
14.09.2019 09:00:00 16,6 15,0 2 1 ENE 1025,9 - 0,0
14.09.2019 08:00:00 15,2 11,6 5 3 ENE 1025,8 - -
14.09.2019 07:00:00 14,9 12,6 5 3 NNE 1025,8 - 0,0
14.09.2019 06:00:00 16,0 13,1 5 3 N 1025,8 - 0,0
14.09.2019 05:00:00 15,3 13,8 5 3 NNW 1026,3 - -
14.09.2019 04:00:00 15,4 14,6 8 4 NNW 1026,6 - 0,0
14.09.2019 03:00:00 15,7 14,6 5 3 NNW 1026,6 - 0,0
14.09.2019 02:00:00 15,9 14,9 5 3 E 1027,7 - -
14.09.2019 01:00:00 15,9 14,3 11 6 ENE 1028,7 - 1,0
14.09.2019 00:00:00 19,3 12,3 13 7 SE 1028,4 - 0,0
13.09.2019 23:00:00 19,6 10,6 9 5 SE 1027,5 - -
13.09.2019 22:00:00 20,0 10,4 8 4 ENE 1026,5 - 0,0
13.09.2019 21:00:00 20,7 10,5 5 3 ENE 1025,9 - 0,0
13.09.2019 20:00:00 22,8 10,9 2 1 WNW 1025,1 - -
13.09.2019 19:00:00 25,0 10,8 8 4 W 1024,5 - 0,0
13.09.2019 18:00:00 26,2 9,9 4 2 S 1024,2 - 0,0
13.09.2019 17:00:00 25,0 9,7 9 5 E 1024,8 75 -
13.09.2019 16:00:00 22,3 10,1 8 4 S 1026,8 - 0,0
13.09.2019 15:00:00 23,5 9,1 11 6 SSE 1026,8 - 0,0
13.09.2019 14:00:00 24,2 9,7 9 5 SSE 1026,9 50 -
13.09.2019 13:00:00 25,1 9,8 18 10 SSE 1026,8 - 0,0
13.09.2019 12:00:00 24,4 9,9 8 4 S 1026,5 - 0,0
13.09.2019 11:00:00 24,8 9,9 5 3 ESE 1025,8 50 -
13.09.2019 10:00:00 22,8 11,5 5 3 ENE 1025,9 - 0,0
13.09.2019 09:00:00 20,1 11,0 4 2 ENE 1026,5 - 0,0
13.09.2019 08:00:00 16,8 9,7 4 2 N 1027,7 - -
13.09.2019 07:00:00 16,4 9,6 4 2 NNE 1027,8 - 0,0
13.09.2019 06:00:00 16,5 9,9 4 2 N 1028,0 - 0,0
13.09.2019 05:00:00 16,6 10,2 9 5 E 1028,0 - -
13.09.2019 04:00:00 17,6 10,9 11 6 E 1027,9 - 0,0
13.09.2019 03:00:00 17,5 10,6 11 6 ENE 1028,4 - 0,0
13.09.2019 02:00:00 17,4 9,8 11 6 E 1028,9 - -
13.09.2019 01:00:00 18,4 9,2 11 6 E 1027,8 - 0,0
13.09.2019 00:00:00 19,0 8,9 5 3 E 1027,5 - 0,0
12.09.2019 23:00:00 20,0 9,0 2 1 NW 1026,7 - -
12.09.2019 22:00:00 21,2 8,1 4 2 NNW 1026,4 - 0,0
12.09.2019 21:00:00 22,3 8,4 2 1 SW 1026,0 - 0,0
12.09.2019 20:00:00 24,7 9,8 4 2 SSW 1025,5 - -
12.09.2019 19:00:00 27,3 9,6 8 4 WSW 1024,6 - 0,0
12.09.2019 18:00:00 27,7 10,0 5 3 WNW 1024,3 - 0,0
12.09.2019 17:00:00 27,2 10,0 4 2 NNW 1024,5 75 -
12.09.2019 16:00:00 27,1 9,9 8 4 SSW 1025,3 - 0,0
12.09.2019 15:00:00 26,6 9,4 11 6 S 1026,3 - 0,0
12.09.2019 14:00:00 26,0 11,0 8 4 WSW 1026,8 60 -
12.09.2019 13:00:00 23,6 10,6 5 3 NW 1027,8 - 0,0
12.09.2019 12:00:00 21,9 10,1 5 3 SSW 1029,0 - 0,0
12.09.2019 11:00:00 18,3 10,1 5 3 W 1029,4 50 -
12.09.2019 10:00:00 15,6 9,7 8 4 W 1029,1 - 0,0
12.09.2019 09:00:00 13,9 8,7 8 4 WNW 1028,2 - 0,0
12.09.2019 08:00:00 12,3 8,4 5 3 WNW 1028,2 - -
12.09.2019 07:00:00 12,1 8,4 8 4 WNW 1027,9 - 0,0
12.09.2019 06:00:00 12,2 8,5 9 5 NW 1028,0 - 0,0
12.09.2019 05:00:00 12,6 8,7 8 4 WNW 1027,8 - -
12.09.2019 04:00:00 13,6 8,4 8 4 W 1027,5 - 0,0
12.09.2019 03:00:00 14,7 8,6 5 3 WNW 1026,3 - 0,0
12.09.2019 02:00:00 14,6 8,8 8 4 W 1026,4 - -
12.09.2019 01:00:00 15,6 8,6 8 4 W 1026,0 - 0,0
12.09.2019 00:00:00 18,1 9,7 4 2 W 1025,3 - 0,0
11.09.2019 23:00:00 18,7 9,7 4 2 NNE 1025,3 - -
11.09.2019 22:00:00 18,9 10,2 5 3 NE 1024,7 - 0,0
11.09.2019 21:00:00 20,3 10,4 8 4 SSE 1023,4 - 0,0
11.09.2019 20:00:00 22,2 9,0 11 6 SSE 1022,0 - -
11.09.2019 19:00:00 24,2 8,6 11 6 S 1020,8 - 0,0
11.09.2019 18:00:00 26,5 8,9 8 4 S 1019,8 - 0,0
11.09.2019 17:00:00 25,9 9,3 11 6 S 1019,6 60 -
11.09.2019 16:00:00 26,6 8,5 9 5 SSW 1019,0 - 0,0
11.09.2019 15:00:00 25,9 7,9 13 7 S 1019,3 - 0,0
11.09.2019 14:00:00 26,7 8,2 9 5 SSE 1019,0 60 -
11.09.2019 13:00:00 25,7 6,8 9 5 SSE 1019,1 - 0,0
11.09.2019 12:00:00 23,8 6,1 5 3 NNE 1019,0 - 0,0
11.09.2019 11:00:00 22,6 5,9 9 5 NE 1019,0 45 -
11.09.2019 10:00:00 18,8 7,6 5 3 NNW 1018,8 - 0,0
11.09.2019 09:00:00 15,6 5,2 5 3 NNW 1017,9 - 0,0
11.09.2019 08:00:00 14,2 5,5 8 4 NNW 1017,4 - -
11.09.2019 07:00:00 14,1 6,0 8 4 NW 1016,6 - 0,0
11.09.2019 06:00:00 15,1 6,1 5 3 NW 1015,9 - 0,0
11.09.2019 05:00:00 14,9 6,2 5 3 WNW 1015,8 - -
11.09.2019 04:00:00 14,7 5,7 8 4 NNW 1015,4 - 0,0
11.09.2019 03:00:00 13,7 5,8 8 4 NW 1015,3 - 0,0
11.09.2019 02:00:00 13,7 5,1 9 5 NNW 1015,2 - -
11.09.2019 01:00:00 14,1 4,9 15 8 NNW 1014,8 - 0,0
11.09.2019 00:00:00 13,4 5,5 8 4 NNW 1015,1 - 0,0
10.09.2019 23:00:00 13,9 5,5 5 3 NW 1014,6 - -
10.09.2019 22:00:00 14,1 7,4 4 2 WNW 1014,3 - 0,0
10.09.2019 21:00:00 14,8 7,6 9 5 ENE 1012,9 - 0,0
10.09.2019 20:00:00 15,8 8,5 13 7 ESE 1011,9 - -
10.09.2019 19:00:00 16,3 10,4 4 2 NNE 1011,0 - 0,0
10.09.2019 18:00:00 15,6 7,9 9 5 NNW 1010,5 - 0,8
10.09.2019 17:00:00 - - - - - - - -
10.09.2019 16:00:00 18,6 5,8 16 9 SE 1008,9 - 0,0
10.09.2019 15:00:00 19,3 4,2 11 6 WNW 1008,8 - 0,0
10.09.2019 14:00:00 18,8 4,2 11 6 NW 1009,1 25 -
10.09.2019 13:00:00 20,5 4,9 11 6 WNW 1008,7 - 0,0
10.09.2019 12:00:00 18,5 3,5 11 6 NW 1009,5 - 0,0
10.09.2019 11:00:00 17,0 4,0 13 7 NW 1010,0 75 -
10.09.2019 10:00:00 14,5 4,5 11 6 WNW 1010,3 - 0,0
10.09.2019 09:00:00 13,6 4,2 13 7 NW 1010,0 - 0,0
10.09.2019 08:00:00 12,5 4,9 11 6 WNW 1009,9 - -
10.09.2019 07:00:00 13,1 5,0 9 5 NW 1009,6 - 0,0
10.09.2019 06:00:00 14,2 5,5 9 5 WNW 1009,0 - 0,0
10.09.2019 05:00:00 15,4 7,7 9 5 NW 1008,8 - -
10.09.2019 04:00:00 16,5 6,9 8 4 NW 1009,2 - 0,0
10.09.2019 03:00:00 16,4 7,6 5 3 NW 1010,0 - 0,0
10.09.2019 02:00:00 17,0 8,2 4 2 WNW 1010,6 - -
10.09.2019 01:00:00 17,5 8,4 5 3 NW 1010,9 - 0,0
10.09.2019 00:00:00 18,5 7,6 5 3 E 1011,0 - 0,0
09.09.2019 23:00:00 19,3 7,7 5 3 NNE 1011,1 - -
09.09.2019 22:00:00 19,5 7,9 8 4 NNE 1011,3 - 0,0
09.09.2019 21:00:00 20,3 7,3 4 2 SE 1010,9 - 0,0
09.09.2019 20:00:00 21,8 8,0 8 4 SSW 1010,4 - -
09.09.2019 19:00:00 23,9 7,1 4 2 S 1009,7 - 0,0
09.09.2019 18:00:00 24,5 6,7 8 4 ENE 1009,6 - 0,0
09.09.2019 17:00:00 24,3 7,4 4 2 S 1010,7 50 -
09.09.2019 16:00:00 24,4 7,1 8 4 W 1011,9 - 0,0
09.09.2019 15:00:00 23,8 7,0 8 4 WSW 1012,9 - 0,0
09.09.2019 14:00:00 22,9 5,3 9 5 ESE 1014,2 50 -
09.09.2019 13:00:00 21,5 6,2 11 6 ESE 1015,3 - 0,0
09.09.2019 12:00:00 20,4 8,1 15 8 ESE 1016,0 - 0,0
09.09.2019 11:00:00 18,8 10,6 13 7 ESE 1016,6 55 -
09.09.2019 10:00:00 16,7 9,9 8 4 ESE 1017,2 - 0,0

tt = temperature
td = dewpoint
ff = wind speed
dd = wind direction
ppp = reduced air pressure
vv = visibility
rr = precipitation

Next stations